Location: Newark
(58.9986°N, 38.5006°E)
Time: 21:56:00
(UTC+00:00)

N. Korean satellite - Pass Details

Date: 13 December 2019
Orbit: 454 x 508 km, 97.2° (Epoch: 19 January)

Event Time Altitude Azimuth Distance (km) Brightness Sun altitude
Rises 02:06:03 0° 27° (NNE) 2,559 10.6 -29.1°
Reaches altitude 10° 02:09:12 10° 58° (ENE) 1,657 10.0 -28.7°
Maximum altitude 02:10:48 13° 85° (E) 1,496 9.9 -28.5°
Drops below altitude 10° 02:12:22 10° 112° (ESE) 1,638 10.0 -28.3°
Sets 02:15:26 0° 143° (SE) 2,495 10.7 -27.9°
